Rochester, MN
on Saturday, November 2, 2013

Saturday
Previous Day Next Day
Daily Summary
 ActualAverageRecord
Temperature
Mean Temperature °F 41°F  
Max Temperature 48°F 50°F 74°F (1953)
Min Temperature 29°F 33°F 8°F (1951)
Degree Days
Heating Degree Days 26 24  
Month to date heating degree days 49 47  
Since 1 July heating degree days 732 783  
Cooling Degree Days 0 0  
Month to date cooling degree days 0 0  
Year to date cooling degree days 656 585  
Moisture
Dew Point 28°F   
Average Humidity 67    
Maximum Humidity 89    
Minimum Humidity 45    
Precipitation
Precipitation 0.00 in 0.06 in 0.67 in (1992)
Month to date precipitation 0.00 0.13  
Year to date precipitation 38.90 30.01  
Snow
Snow 0.00 in 0.10 in 2.90 in (1928)
Month to date snowfall 0.0 0.2  
Since 1 July snowfall T 1.0  
Snow Depth 0.00 in   
Wind
Wind Speed 8 mph   
Max Wind Speed 17 mph   
Max Gust Speed 23 mph   
Visibility 10 miles   
Events     

Key: T is trace of precipitation, MM is missing value
Source: NWS Daily Summary
Time(CDT)TemperatureDew PointHumidity Pressure Visibility Wind DirectionWind SpeedGust SpeedPrecipitationEvents Conditions
12:54 AM 34.0°F 28.0°F 79% 29.88 in 10.0 miles NNW 9.2 mph - N/A   Clear
1:54 AM 33.1°F 28.0°F 82% 29.91 in 10.0 miles WNW 9.2 mph - N/A   Partly Cloudy
2:54 AM 34.0°F 30.0°F 85% 29.91 in 10.0 miles NW 6.9 mph - N/A   Overcast
3:54 AM 36.0°F 30.9°F 82% 29.92 in 10.0 miles West 4.6 mph - N/A   Overcast
4:33 AM 37.4°F 32.0°F 81% 29.90 in 10.0 miles West 6.9 mph - N/A   Overcast
4:54 AM 37.9°F 33.1°F 83% 29.94 in 10.0 miles WNW 9.2 mph - N/A   Overcast
5:54 AM 36.0°F 30.9°F 82% 29.96 in 10.0 miles NW 13.8 mph - N/A   Partly Cloudy
6:54 AM 34.0°F 28.9°F 82% 29.99 in 10.0 miles NW 10.4 mph - N/A   Partly Cloudy
7:09 AM 33.8°F 28.4°F 81% 29.96 in 10.0 miles NW 9.2 mph - N/A   Mostly Cloudy
7:54 AM 35.1°F 28.9°F 78% 30.01 in 10.0 miles NW 8.1 mph - N/A   Overcast
8:54 AM 35.1°F 30.0°F 82% 30.04 in 10.0 miles NW 10.4 mph - N/A   Scattered Clouds
9:54 AM 37.0°F 30.0°F 76% 30.04 in 10.0 miles NNW 12.7 mph - N/A   Clear
10:54 AM 39.9°F 30.0°F 68% 30.06 in 10.0 miles NW 12.7 mph - N/A   Partly Cloudy
11:54 AM 42.1°F 28.0°F 58% 30.09 in 10.0 miles NNW 10.4 mph - N/A   Clear
12:54 PM 45.0°F 30.0°F 56% 30.09 in 10.0 miles NNW 11.5 mph - N/A   Partly Cloudy
1:54 PM 45.0°F 28.9°F 53% 30.09 in 10.0 miles WNW 11.5 mph - N/A   Clear
2:54 PM 46.9°F 28.0°F 48% 30.09 in 10.0 miles NNW 10.4 mph - N/A   Clear
3:54 PM 46.9°F 28.0°F 48% 30.09 in 10.0 miles NW 10.4 mph - N/A   Clear
4:54 PM 46.9°F 27.0°F 46% 30.10 in 10.0 miles NW 11.5 mph - N/A   Clear
5:54 PM 41.0°F 26.1°F 55% 30.12 in 10.0 miles WNW 6.9 mph - N/A   Clear
6:54 PM 41.0°F 25.0°F 53% 30.14 in 10.0 miles WNW 3.5 mph - N/A   Clear
7:54 PM 39.9°F 25.0°F 55% 30.14 in 10.0 miles West 3.5 mph - N/A   Clear
8:54 PM 34.0°F 25.0°F 70% 30.14 in 10.0 miles South 3.5 mph - N/A   Clear
9:54 PM 32.0°F 25.0°F 75% 30.15 in 10.0 miles South 5.8 mph - N/A   Clear
10:54 PM 28.9°F 23.0°F 78% 30.16 in 10.0 miles SSE 5.8 mph - N/A   Clear
11:54 PM 28.9°F 24.1°F 82% 30.16 in 10.0 miles South 5.8 mph - N/A   Partly Cloudy
Astronomy
Sunrise:07:47 AM (CDT) Moon Rise:06:44 AM (CDT)11/2
Sunset:05:58 PM (CDT) Moon Set:05:30 PM (CDT)11/2
Moon Phase
Nov. 02 Nov. 03 Nov. 10 Nov. 17 Nov. 25

Copyright © 2017 The Weather Underground, Inc.